| time (UTC) | temp C | wind direction | speed KPH | gust KPH | rain 1hr cm | rain 24hr cm | rain mn cm | humidity % | barometer mb |
| 20260504160117 | 23 | 182 | 14.5 | 29.0 | 0.00 | 0.00 | 0.00 | 69 | 1001.6 |
| 20260504151052 | 22 | 185 | 14.5 | 24.1 | 0.00 | 0.00 | 0.00 | 72 | 1002.7 |
| 20260504150551 | 22 | 173 | 9.7 | 24.1 | 0.00 | 0.00 | 0.00 | 73 | 1002.4 |
| 20260504141010 | 20 | 166 | 8.0 | 20.9 | 0.00 | 0.00 | 0.00 | 75 | 1003.9 |
| 20260504140509 | 20 | 151 | 9.7 | 20.9 | 0.00 | 0.00 | 0.00 | 76 | 1004.3 |
| 20260504130427 | 17 | 156 | 4.8 | 20.9 | 0.00 | 0.00 | 0.00 | 81 | 1006.8 |
| 20260504110318 | 14 | 115 | 0.0 | 20.9 | 0.00 | 0.00 | 0.00 | 85 | 1007.2 |
| 20260504081646 | 16 | 139 | 4.8 | 20.9 | 0.00 | 0.00 | 0.00 | 78 | 1008.1 |
| 20260504080629 | 16 | 140 | 4.8 | 20.9 | 0.00 | 0.00 | 0.00 | 78 | 1008.3 |
| 20260504080128 | 16 | 140 | 1.6 | 20.9 | 0.00 | 0.00 | 0.00 | 78 | 1008.5 |
| 20260504050408 | 17 | 151 | 4.8 | 20.9 | 0.00 | 0.00 | 0.00 | 74 | 1009.6 |
| 20260504045907 | 17 | 144 | 3.2 | 20.9 | 0.00 | 0.00 | 0.00 | 74 | 1009.9 |
| 20260504045406 | 17 | 146 | 4.8 | 20.9 | 0.00 | 0.00 | 0.00 | 74 | 1009.6 |
| 20260504044906 | 17 | 156 | 4.8 | 20.9 | 0.00 | 0.00 | 0.00 | 73 | 1009.6 |
| 20260504044404 | 17 | 155 | 3.2 | 20.9 | 0.00 | 0.00 | 0.00 | 73 | 1009.6 |
| 20260504043347 | 17 | 150 | 3.2 | 20.9 | 0.00 | 0.00 | 0.00 | 72 | 1009.8 |
| 20260504042847 | 18 | 153 | 4.8 | 20.9 | 0.00 | 0.00 | 0.00 | 72 | 1009.8 |
| 20260504042346 | 18 | 154 | 3.2 | 20.9 | 0.00 | 0.00 | 0.00 | 72 | 1009.5 |
| 20260504041845 | 18 | 154 | 3.2 | 20.9 | 0.00 | 0.00 | 0.00 | 71 | 1009.6 |
| 20260504041343 | 18 | 153 | 4.8 | 20.9 | 0.00 | 0.00 | 0.00 | 71 | 1009.4 |
| 20260504040843 | 18 | 155 | 3.2 | 20.9 | 0.00 | 0.00 | 0.00 | 71 | 1009.5 |
| 20260504035826 | 18 | 157 | 3.2 | 20.9 | 0.00 | 0.00 | 0.00 | 71 | 1009.6 |
| 20260504035324 | 18 | 156 | 4.8 | 20.9 | 0.00 | 0.00 | 0.00 | 70 | 1009.7 |
| 20260504033236 | 18 | 145 | 3.2 | 20.9 | 0.00 | 0.00 | 0.00 | 70 | 1009.2 |
| 20260504032735 | 18 | 146 | 4.8 | 20.9 | 0.00 | 0.00 | 0.00 | 69 | 1008.9 |
| 20260504032234 | 18 | 145 | 4.8 | 20.9 | 0.00 | 0.00 | 0.00 | 69 | 1009.1 |
| 20260504031733 | 18 | 154 | 4.8 | 20.9 | 0.00 | 0.00 | 0.00 | 69 | 1008.8 |
| 20260504030716 | 18 | 155 | 3.2 | 20.9 | 0.00 | 0.00 | 0.00 | 68 | 1008.9 |
| 20260504030215 | 19 | 143 | 4.8 | 20.9 | 0.00 | 0.00 | 0.00 | 67 | 1008.5 |
| 20260504025714 | 19 | 141 | 3.2 | 20.9 | 0.00 | 0.00 | 0.00 | 67 | 1008.1 |
| 20260504025213 | 19 | 142 | 1.6 | 20.9 | 0.00 | 0.00 | 0.00 | 66 | 1008.3 |
| 20260504024712 | 19 | 141 | 1.6 | 20.9 | 0.00 | 0.00 | 0.00 | 65 | 1008.1 |
| 20260504024211 | 19 | 146 | 4.8 | 20.9 | 0.00 | 0.00 | 0.00 | 64 | 1007.6 |
| 20260504023710 | 19 | 133 | 3.2 | 20.9 | 0.00 | 0.00 | 0.00 | 63 | 1007.4 |
| 20260504023209 | 19 | 121 | 3.2 | 20.9 | 0.00 | 0.00 | 0.00 | 63 | 1007.5 |
| 20260504022152 | 19 | 122 | 1.6 | 20.9 | 0.00 | 0.00 | 0.00 | 64 | 1007.0 |
| 20260504021651 | 19 | 122 | 1.6 | 20.9 | 0.00 | 0.00 | 0.00 | 62 | 1006.3 |
| 20260504021150 | 20 | 122 | 1.6 | 20.9 | 0.00 | 0.00 | 0.00 | 60 | 1005.1 |
| 20260504020649 | 20 | 123 | 0.0 | 20.9 | 0.00 | 0.00 | 0.00 | 60 | 1005.3 |
| 20260504020148 | 20 | 123 | 0.0 | 20.9 | 0.00 | 0.00 | 0.00 | 57 | 1005.4 |
| 20260504015647 | 20 | 123 | 0.0 | 20.9 | 0.00 | 0.00 | 0.00 | 56 | 1004.9 |
| 20260504014630 | 21 | 123 | 1.6 | 20.9 | 0.00 | 0.00 | 0.00 | 55 | 1004.7 |
| 20260504014129 | 21 | 123 | 0.0 | 20.9 | 0.00 | 0.00 | 0.00 | 55 | 1004.8 |
| 20260504013112 | 21 | 124 | 0.0 | 20.9 | 0.00 | 0.00 | 0.00 | 54 | 1005.0 |
| 20260504012611 | 21 | 126 | 1.6 | 20.9 | 0.00 | 0.00 | 0.00 | 53 | 1004.6 |
| 20260504012110 | 21 | 126 | 3.2 | 20.9 | 0.00 | 0.00 | 0.00 | 52 | 1004.6 |
| 20260504011609 | 22 | 127 | 3.2 | 20.9 | 0.00 | 0.00 | 0.00 | 52 | 1004.5 |
| 20260504010552 | 22 | 126 | 1.6 | 20.9 | 0.00 | 0.00 | 0.00 | 50 | 1003.4 |
| 20260504010051 | 22 | 126 | 3.2 | 20.9 | 0.00 | 0.00 | 0.00 | 50 | 1002.7 |
| 20260504005550 | 22 | 127 | 3.2 | 20.9 | 0.00 | 0.00 | 0.00 | 49 | 1002.4 |
| 20260504005049 | 22 | 127 | 3.2 | 20.9 | 0.00 | 0.00 | 0.00 | 48 | 1001.9 |
| 20260504004032 | 23 | 129 | 3.2 | 20.9 | 0.00 | 0.00 | 0.00 | 47 | 1001.9 |
| 20260504003531 | 23 | 129 | 4.8 | 20.9 | 0.00 | 0.00 | 0.00 | 47 | 1002.0 |
| 20260504003030 | 23 | 128 | 3.2 | 20.9 | 0.00 | 0.00 | 0.00 | 45 | 1002.0 |
| 20260504002529 | 23 | 127 | 4.8 | 20.9 | 0.00 | 0.00 | 0.00 | 45 | 1001.6 |
| 20260504002028 | 23 | 131 | 6.4 | 20.9 | 0.00 | 0.00 | 0.00 | 43 | 1001.6 |
| 20260504001527 | 23 | 131 | 4.8 | 20.9 | 0.00 | 0.00 | 0.00 | 44 | 1001.7 |
| 20260504001026 | 23 | 131 | 6.4 | 20.9 | 0.00 | 0.00 | 0.00 | 43 | 1002.1 |
| 20260504000525 | 23 | 132 | 4.8 | 20.9 | 0.00 | 0.00 | 0.00 | 42 | 1002.8 |
| 20260504000024 | 23 | 130 | 6.4 | 20.9 | 0.00 | 0.00 | 0.00 | 41 | 1002.7 |
| 20260503235523 | 23 | 136 | 8.0 | 20.9 | 0.00 | 0.00 | 0.00 | 41 | 1002.8 |
| 20260503235022 | 24 | 137 | 8.0 | 20.9 | 0.00 | 0.00 | 0.00 | 41 | 1002.4 |
| 20260503234521 | 24 | 133 | 8.0 | 20.9 | 0.00 | 0.00 | 0.00 | 39 | 1001.4 |
| 20260503234020 | 24 | 142 | 8.0 | 20.9 | 0.00 | 0.00 | 0.00 | 38 | 1000.7 |
| 20260503233003 | 25 | 139 | 9.7 | 20.9 | 0.00 | 0.00 | 0.00 | 38 | 999.7 |
| 20260503232502 | 25 | 162 | 8.0 | 20.9 | 0.00 | 0.00 | 0.00 | 38 | 999.5 |
| 20260503232001 | 25 | 152 | 8.0 | 20.9 | 0.00 | 0.00 | 0.00 | 38 | 999.7 |
| 20260503231500 | 25 | 153 | 4.8 | 20.9 | 0.00 | 0.00 | 0.00 | 40 | 1000.0 |
| 20260503230959 | 25 | 167 | 9.7 | 20.9 | 0.00 | 0.00 | 0.00 | 38 | 1000.5 |
| 20260503225426 | 25 | 150 | 11.3 | 20.9 | 0.00 | 0.00 | 0.00 | 38 | 999.7 |
| 20260503224925 | 25 | 148 | 8.0 | 20.9 | 0.00 | 0.00 | 0.00 | 39 | 1000.1 |
| 20260503224424 | 25 | 160 | 9.7 | 20.9 | 0.00 | 0.00 | 0.00 | 39 | 1000.4 |
| 20260503223923 | 25 | 134 | 12.9 | 20.9 | 0.00 | 0.00 | 0.00 | 40 | 1000.4 |
| 20260503223423 | 25 | 156 | 9.7 | 24.1 | 0.00 | 0.00 | 0.00 | 40 | 999.9 |
| 20260503222921 | 25 | 140 | 12.9 | 24.1 | 0.00 | 0.00 | 0.00 | 40 | 999.5 |
| 20260503222420 | 25 | 141 | 9.7 | 17.7 | 0.00 | 0.00 | 0.00 | 40 | 999.1 |
| 20260503221919 | 25 | 146 | 11.3 | 17.7 | 0.00 | 0.00 | 0.00 | 40 | 998.4 |
| 20260503221419 | 25 | 160 | 8.0 | 17.7 | 0.00 | 0.00 | 0.00 | 41 | 998.5 |
| 20260503220918 | 25 | 157 | 3.2 | 17.7 | 0.00 | 0.00 | 0.00 | 42 | 998.7 |
| 20260503220417 | 25 | 148 | 6.4 | 17.7 | 0.00 | 0.00 | 0.00 | 42 | 999.2 |
| 20260503215915 | 25 | 150 | 9.7 | 17.7 | 0.00 | 0.00 | 0.00 | 40 | 999.3 |
| 20260503215415 | 25 | 165 | 9.7 | 17.7 | 0.00 | 0.00 | 0.00 | 43 | 999.0 |
| 20260503214358 | 26 | 188 | 9.7 | 20.9 | 0.00 | 0.00 | 0.00 | 40 | 998.5 |
| 20260503213857 | 26 | 178 | 9.7 | 20.9 | 0.00 | 0.00 | 0.00 | 39 | 998.2 |
| 20260503212840 | 25 | 139 | 11.3 | 20.9 | 0.00 | 0.00 | 0.00 | 39 | 998.8 |
| 20260503212339 | 25 | 127 | 6.4 | 19.3 | 0.00 | 0.00 | 0.00 | 44 | 998.9 |
| 20260503211322 | 25 | 137 | 8.0 | 20.9 | 0.00 | 0.00 | 0.00 | 42 | 1000.3 |
| 20260503210821 | 25 | 165 | 9.7 | 20.9 | 0.00 | 0.00 | 0.00 | 40 | 1000.2 |
| 20260503210320 | 26 | 135 | 12.9 | 20.9 | 0.00 | 0.00 | 0.00 | 40 | 999.2 |
| 20260503205819 | 26 | 143 | 14.5 | 20.9 | 0.00 | 0.00 | 0.00 | 40 | 998.7 |
| 20260503205318 | 26 | 167 | 9.7 | 17.7 | 0.00 | 0.00 | 0.00 | 40 | 997.7 |
| 20260503204817 | 26 | 160 | 8.0 | 17.7 | 0.00 | 0.00 | 0.00 | 41 | 997.6 |
| 20260503204316 | 26 | 146 | 4.8 | 17.7 | 0.00 | 0.00 | 0.00 | 40 | 998.1 |
| 20260503203815 | 26 | 169 | 9.7 | 17.7 | 0.00 | 0.00 | 0.00 | 41 | 998.5 |
| 20260503203314 | 25 | 120 | 4.8 | 17.7 | 0.00 | 0.00 | 0.00 | 41 | 998.7 |
| 20260503202813 | 25 | 126 | 6.4 | 19.3 | 0.00 | 0.00 | 0.00 | 38 | 1000.2 |
| 20260503202312 | 25 | 156 | 8.0 | 19.3 | 0.00 | 0.00 | 0.00 | 40 | 1000.2 |
| 20260503201255 | 25 | 145 | 8.0 | 20.9 | 0.00 | 0.00 | 0.00 | 41 | 1001.2 |
| 20260503200754 | 25 | 132 | 11.3 | 20.9 | 0.00 | 0.00 | 0.00 | 40 | 1001.3 |
| 20260503195737 | 25 | 130 | 3.2 | 22.5 | 0.00 | 0.00 | 0.00 | 39 | 1001.7 |
| 20260503194720 | 25 | 144 | 12.9 | 22.5 | 0.00 | 0.00 | 0.00 | 38 | 1000.7 |
| 20260503194219 | 25 | 123 | 1.6 | 17.7 | 0.00 | 0.00 | 0.00 | 41 | 1000.3 |
| 20260503193718 | 25 | 151 | 9.7 | 17.7 | 0.00 | 0.00 | 0.00 | 41 | 1000.9 |
| 20260503193217 | 25 | 150 | 3.2 | 22.5 | 0.00 | 0.00 | 0.00 | 42 | 1001.3 |
| 20260503192716 | 25 | 167 | 9.7 | 22.5 | 0.00 | 0.00 | 0.00 | 43 | 1001.6 |
| 20260503191659 | 25 | 146 | 4.8 | 22.5 | 0.00 | 0.00 | 0.00 | 41 | 1001.3 |
| 20260503191158 | 25 | 132 | 8.0 | 22.5 | 0.00 | 0.00 | 0.00 | 39 | 1002.3 |
| 20260503190657 | 25 | 134 | 9.7 | 19.3 | 0.00 | 0.00 | 0.00 | 41 | 1000.1 |
| 20260503190156 | 25 | 130 | 4.8 | 22.5 | 0.00 | 0.00 | 0.00 | 42 | 1000.9 |
| 20260503185655 | 25 | 128 | 8.0 | 22.5 | 0.00 | 0.00 | 0.00 | 39 | 1001.1 |
| 20260503184638 | 25 | 109 | 3.2 | 17.7 | 0.00 | 0.00 | 0.00 | 42 | 1000.5 |
| 20260503183621 | 25 | 164 | 8.0 | 24.1 | 0.00 | 0.00 | 0.00 | 41 | 1002.4 |
| 20260503183120 | 25 | 154 | 14.5 | 24.1 | 0.00 | 0.00 | 0.00 | 40 | 1000.8 |
| 20260503182103 | 25 | 140 | 4.8 | 19.3 | 0.00 | 0.00 | 0.00 | 40 | 999.8 |
| 20260503181602 | 25 | 131 | 4.8 | 19.3 | 0.00 | 0.00 | 0.00 | 40 | 1000.5 |
| 20260503181101 | 25 | 69 | 3.2 | 19.3 | 0.00 | 0.00 | 0.00 | 41 | 1001.0 |
| 20260503180600 | 25 | 118 | 6.4 | 19.3 | 0.00 | 0.00 | 0.00 | 41 | 1001.4 |
| 20260503175543 | 25 | 121 | 3.2 | 19.3 | 0.00 | 0.00 | 0.00 | 45 | 1001.7 |
| 20260503175042 | 25 | 124 | 6.4 | 19.3 | 0.00 | 0.00 | 0.00 | 45 | 1002.1 |
| 20260503174541 | 25 | 136 | 9.7 | 19.3 | 0.00 | 0.00 | 0.00 | 43 | 1001.3 |
| 20260503173524 | 24 | 138 | 3.2 | 19.3 | 0.00 | 0.00 | 0.00 | 43 | 1002.7 |
| 20260503173023 | 25 | 137 | 6.4 | 19.3 | 0.00 | 0.00 | 0.00 | 42 | 1002.6 |
| 20260503172522 | 24 | 154 | 3.2 | 19.3 | 0.00 | 0.00 | 0.00 | 45 | 1002.9 |
| 20260503172022 | 24 | 175 | 3.2 | 19.3 | 0.00 | 0.00 | 0.00 | 45 | 1003.9 |
| 20260503171520 | 24 | 155 | 6.4 | 19.3 | 0.00 | 0.00 | 0.00 | 44 | 1003.8 |
| 20260503171019 | 24 | 156 | 4.8 | 19.3 | 0.00 | 0.00 | 0.00 | 46 | 1004.3 |
| 20260503170519 | 24 | 161 | 6.4 | 19.3 | 0.00 | 0.00 | 0.00 | 48 | 1003.5 |